Epoch,demod_status_bits,ebno,lock_status,signal_level,viterbi_ber
1663957310,C;S;V;F,14.9,0x00c000,-36.5,0.00e-0
1663957311,C;S;V;F,15.3,0x00c000,-36.4,0.00e-0
1663957312,C;S;V;F,15.0,0x00c000,-36.5,0.00e-0
1663957313,C;S;V;F,15.4,0x00c000,-36.2,0.00e-0
1663957314,C;S;V;F,15.6,0x00c000,-36.2,
1663957315,C;S;V;F,15.4,0x00c000,-36.4,0.00e-0
1663957316,,15.2,0x00c000,-36.4,0.00e-0
1663957317,C;S;V;F,,0x00c000,,0.00e-0
1663957318,C;S;V;F,15.7,0x00c000,-35.6,0.00e-0
1663957319,C;S;V;F,15.3,0x00c000,-36.8,0.00e-0
1663957320,C;S;V;F,15.9,0x00c000,-35.7,0.00e-0
1663957321,C;S;V;F,15.4,0x00c000,-36.4,0.00e-0
1663957324,C;S;V;F,15.5,0x00c000,-36.3,0.00e-0
1663957325,C;S;V;F,15.6,0x00c000,-36.1,0.00e-0
1663957326,C;S;V;F,15.8,0x00c000,-36.0,0.00e-0
1663957327,C;S;V;F,15.4,0x00c000,-36.1,0.00e-0
1663957328,,15.8,0x00c000,-35.8,
1663957329,C;S;V;F,15.7,0x00c000,-35.9,0.00e-0
1663957330,C;S;V;F,15.8,0x00c000,-36.0,0.00e-0
1663957331,C;S;V;F,16.2,0x00c000,-35.6,0.00e-0
1663957332,C;S;V;F,,0x00c000,-36.0,0.00e-0
1663957333,C;S;V;F,15.7,0x00c000,-36.0,0.00e-0
1663957334,C;S;V;F,15.8,0x00c000,,0.00e-0
1663957335,C;S;V;F,15.4,0x00c000,-36.0,0.00e-0
1663957336,C;S;V;F,15.9,0x00c000,-35.7,0.00e-0
1663957337,C;S;V;F,15.7,0x00c000,-36.0,0.00e-0
1663957338,C;S;V;F,16.2,0x00c000,-35.5,0.00e-0
1663957339,C;S;V;F,16.1,0x00c000,-35.6,0.00e-0
1663957340,C;S;V;F,16.0,0x00c000,-35.6,0.00e-0
1663957341,C;S;V;F,15.9,0x00c000,-35.8,
1663957342,,15.8,0x00c000,-36.4,0.00e-0
1663957343,C;S;V;F,15.6,0x00c000,-35.9,0.00e-0
1663957344,C;S;V;F,16.0,0x00c000,-35.4,0.00e-0
1663957345,C;S;V;F,16.1,0x00c000,-35.6,0.00e-0
1663957346,C;S;V;F,,0x00c000,-35.5,0.00e-0
1663957347,C;S;V;F,16.2,0x00c000,-35.7,0.00e-0
1663957348,C;S;V;F,16.0,0x00c000,,0.00e-0
1663957349,C;S;V;F,15.2,0x00c000,-36.4,0.00e-0
1663957350,C;S;V;F,16.0,0x00c000,-35.2,0.00e-0
1663957351,C;S;V;F,16.3,0x00c000,-35.2,0.00e-0
1663957352,C;S;V;F,15.8,0x00c000,-35.9,0.00e-0
1663957353,C;S;V;F,15.8,0x00c000,-35.8,0.00e-0
1663957354,C;S;V;F,15.7,0x00c000,-36.0,
1663957355,,15.9,0x00c000,-35.7,0.00e-0
1663957356,C;S;V;F,15.9,0x00c000,-35.4,0.00e-0
1663957357,C;S;V;F,16.2,0x00c000,-35.5,0.00e-0
1663957358,C;S;V;F,,0x00c000,-35.5,0.00e-0
1663957359,C;S;V;F,16.2,0x00c000,,0.00e-0
1663957360,C;S;V;F,16.0,0x00c000,-35.9,0.00e-0
1663957361,C;S;V;F,15.9,0x00c000,-35.6,0.00e-0
1663957362,C;S;V;F,16.0,0x00c000,-35.4,0.00e-0
1663957363,C;S;V;F,16.6,0x00c000,-35.0,0.00e-0
1663957364,C;S;V;F,16.1,0x00c000,-35.5,0.00e-0
1663957365,C;S;V;F,16.3,0x00c000,-35.4,0.00e-0
1663957366,C;S;V;F,16.3,0x00c000,-35.5,
1663957367,,16.6,0x00c000,-35.2,0.00e-0
1663957368,C;S;V;F,16.0,0x00c000,-35.3,0.00e-0
1663957369,C;S;V;F,,0x00c000,-35.2,0.00e-0
1663957370,C;S;V;F,16.2,0x00c000,,0.00e-0
1663957371,C;S;V;F,16.6,0x00c000,-34.9,0.00e-0
1663957372,C;S;V;F,16.5,0x00c000,-35.2,0.00e-0
1663957373,C;S;V;F,16.4,0x00c000,-35.5,0.00e-0
1663957374,C;S;V;F,16.6,0x00c000,-35.2,0.00e-0
1663957375,C;S;V;F,16.5,0x00c000,-35.2,0.00e-0
1663957376,C;S;V;F,16.4,0x00c000,-35.3,0.00e-0
1663957377,C;S;V;F,16.5,0x00c000,-35.2,0.00e-0
1663957378,,16.6,0x00c000,-35.1,
1663957379,C;S;V;F,16.5,0x00c000,-35.1,0.00e-0
1663957380,C;S;V;F,,0x00c000,-35.3,0.00e-0
1663957381,C;S;V;F,16.7,0x00c000,-35.0,0.00e-0
1663957382,C;S;V;F,16.4,0x00c000,,0.00e-0
1663957383,C;S;V;F,16.8,0x00c000,-35.0,0.00e-0
1663957384,C;S;V;F,16.6,0x00c000,-35.3,0.00e-0
1663957387,C;S;V;F,16.7,0x00c000,-35.2,0.00e-0
1663957388,C;S;V;F,16.7,0x00c000,-35.0,0.00e-0
1663957389,C;S;V;F,16.8,0x00c000,-35.4,0.00e-0
1663957390,C;S;V;F,17.0,0x00c000,-34.7,0.00e-0
1663957391,C;S;V;F,17.0,0x00c000,-34.9,
1663957392,,16.5,0x00c000,-35.4,0.00e-0
1663957393,C;S;V;F,17.0,0x00c000,-34.8,0.00e-0
1663957394,C;S;V;F,,0x00c000,-34.8,0.00e-0
1663957395,C;S;V;F,17.1,0x00c000,,0.00e-0
1663957396,C;S;V;F,16.8,0x00c000,-34.8,0.00e-0
1663957397,C;S;V;F,17.1,0x00c000,-34.8,0.00e-0
1663957398,C;S;V;F,17.1,0x00c000,-34.8,0.00e-0
1663957399,C;S;V;F,16.8,0x00c000,-34.9,0.00e-0
1663957400,C;S;V;F,17.1,0x00c000,-34.7,0.00e-0
1663957401,C;S;V;F,17.3,0x00c000,-34.8,0.00e-0
1663957402,C;S;V;F,17.1,0x00c000,-35.0,0.00e-0
1663957406,C;S;V;F,17.2,0x00c000,-34.5,0.00e-0
1663957407,C;S;V;F,17.4,0x00c000,-34.8,0.00e-0
1663957408,C;S;V;F,17.2,0x00c000,-34.8,0.00e-0
1663957409,C;S;V;F,17.2,0x00c000,-34.4,0.00e-0
1663957410,C;S;V;F,17.3,0x00c000,-34.8,0.00e-0
1663957411,,17.1,0x00c000,-34.8,
1663957412,C;S;V;F,17.2,0x00c000,-34.7,0.00e-0
1663957413,C;S;V;F,17.0,0x00c000,-34.7,0.00e-0
1663957414,C;S;V;F,,0x00c000,-34.6,0.00e-0
1663957415,C;S;V;F,17.4,0x00c000,-34.7,0.00e-0
1663957416,C;S;V;F,17.2,0x00c000,,0.00e-0
1663957417,C;S;V;F,17.2,0x00c000,-34.7,0.00e-0
1663957418,C;S;V;F,17.2,0x00c000,-34.8,0.00e-0
1663957419,C;S;V;F,17.4,0x00c000,-34.7,0.00e-0
1663957420,C;S;V;F,17.4,0x00c000,-34.7,0.00e-0
1663957421,C;S;V;F,17.3,0x00c000,-34.6,0.00e-0
1663957422,C;S;V;F,17.1,0x00c000,-34.7,0.00e-0
1663957423,C;S;V;F,17.0,0x00c000,-34.7,0.00e-0
1663957424,C;S;V;F,17.3,0x00c000,-34.7,0.00e-0
1663957425,C;S;V;F,17.4,0x00c000,-34.5,
1663957426,,17.5,0x00c000,-34.5,0.00e-0
1663957427,C;S;V;F,17.4,0x00c000,-34.6,0.00e-0
1663957428,C;S;V;F,17.3,0x00c000,-34.7,0.00e-0
1663957429,C;S;V;F,,0x00c000,-34.7,0.00e-0
1663957430,C;S;V;F,17.2,0x00c000,-34.7,0.00e-0
1663957431,C;S;V;F,17.4,0x00c000,,0.00e-0
1663957432,C;S;V;F,17.1,0x00c000,-34.8,0.00e-0
1663957433,C;S;V;F,17.4,0x00c000,-34.7,0.00e-0
1663957434,C;S;V;F,17.2,0x00c000,-34.7,0.00e-0
1663957435,C;S;V;F,17.5,0x00c000,-34.7,0.00e-0
1663957436,C;S;V;F,17.4,0x00c000,-34.7,0.00e-0
1663957437,C;S;V;F,17.3,0x00c000,-34.6,0.00e-0
1663957438,C;S;V;F,17.3,0x00c000,-34.7,0.00e-0
1663957439,C;S;V;F,17.4,0x00c000,-34.8,0.00e-0
1663957440,C;S;V;F,17.3,0x00c000,-34.6,
1663957441,,17.5,0x00c000,-34.6,0.00e-0
1663957442,C;S;V;F,17.4,0x00c000,-34.7,0.00e-0
1663957443,C;S;V;F,,0x00c000,-34.7,0.00e-0
1663957444,C;S;V;F,17.3,0x00c000,-34.8,0.00e-0
1663957445,C;S;V;F,17.2,0x00c000,,0.00e-0
1663957446,C;S;V;F,17.3,0x00c000,-34.5,0.00e-0
1663957447,C;S;V;F,17.4,0x00c000,-34.7,0.00e-0
1663957449,,17.5,0x00c000,-34.7,
1663957450,C;S;V;F,,0x00c000,-34.7,0.00e-0
1663957451,C;S;V;F,17.4,0x00c000,,0.00e-0
1663957452,C;S;V;F,17.3,0x00c000,-34.8,0.00e-0
1663957453,C;S;V;F,17.3,0x00c000,-34.8,0.00e-0
1663957454,C;S;V;F,17.6,0x00c000,-34.8,0.00e-0
1663957455,C;S;V;F,17.1,0x00c000,-34.8,0.00e-0
1663957456,C;S;V;F,17.4,0x00c000,-34.8,0.00e-0
1663957457,,17.5,0x00c000,-34.8,
1663957458,C;S;V;F,17.3,0x00c000,-34.8,0.00e-0
1663957459,C;S;V;F,,0x00c000,-34.7,0.00e-0
1663957460,C;S;V;F,17.4,0x00c000,-34.7,0.00e-0
1663957461,C;S;V;F,17.4,0x00c000,,0.00e-0
1663957462,C;S;V;F,17.4,0x00c000,-34.8,0.00e-0
1663957463,C;S;V;F,17.3,0x00c000,-34.8,0.00e-0
1663957464,C;S;V;F,17.5,0x00c000,-34.8,0.00e-0
1663957465,C;S;V;F,17.3,0x00c000,-34.8,0.00e-0
1663957466,C;S;V;F,17.3,0x00c000,-34.8,0.00e-0
1663957467,C;S;V;F,17.3,0x00c000,-35.1,0.00e-0
1663957468,C;S;V;F,17.4,0x00c000,-34.7,
1663957469,,17.1,0x00c000,-35.1,0.00e-0
1663957470,C;S;V;F,17.1,0x00c000,-35.0,0.00e-0
1663957471,C;S;V;F,,0x00c000,-35.1,0.00e-0
1663957472,C;S;V;F,17.1,0x00c000,,0.00e-0
1663957473,C;S;V;F,17.0,0x00c000,-35.1,0.00e-0
1663957474,C;S;V;F,17.2,0x00c000,-35.2,0.00e-0
1663957475,C;S;V;F,17.4,0x00c000,-35.0,0.00e-0
1663957476,C;S;V;F,17.3,0x00c000,-35.2,0.00e-0
1663957477,C;S;V;F,17.1,0x00c000,-35.4,0.00e-0
1663957478,C;S;V;F,17.1,0x00c000,-35.2,0.00e-0
1663957479,C;S;V;F,16.9,0x00c000,-35.5,
1663957480,,16.8,0x00c000,-35.5,0.00e-0
1663957481,C;S;V;F,16.9,0x00c000,-35.2,0.00e-0
1663957482,C;S;V;F,16.9,0x00c000,-35.5,0.00e-0
1663957483,C;S;V;F,,0x00c000,-35.5,0.00e-0
1663957484,C;S;V;F,16.7,0x00c000,,0.00e-0
1663957485,C;S;V;F,16.6,0x00c000,-35.6,0.00e-0
1663957486,C;S;V;F,16.6,0x00c000,-35.8,0.00e-0
1663957487,C;S;V;F,16.5,0x00c000,-36.1,0.00e-0
1663957488,C;S;V;F,16.3,0x00c000,-35.9,0.00e-0
1663957489,C;S;V;F,16.3,0x00c000,-36.1,0.00e-0
1663957490,C;S;V;F,16.2,0x00c000,-36.4,0.00e-0
1663957491,C;S;V;F,16.3,0x00c000,-36.5,0.00e-0
1663957492,C;S;V;F,16.3,0x00c000,-36.3,0.00e-0
1663957493,,16.0,0x00c000,-36.3,
1663957494,C;S;V;F,16.0,0x00c000,-36.4,0.00e-0
1663957495,C;S;V;F,15.9,0x00c000,-36.8,0.00e-0
1663957496,C;S;V;F,,0x00c000,-37.1,0.00e-0
1663957497,C;S;V;F,15.7,0x00c000,-37.2,0.00e-0
1663957498,C;S;V;F,15.4,0x00c000,,0.00e-0
1663957499,C;S;V;F,15.6,0x00c000,-37.1,0.00e-0
1663957500,C;S;V;F,15.2,0x00c000,-37.2,0.00e-0
1663957501,C;S;V;F,15.4,0x00c000,-37.2,0.00e-0
1663957502,C;S;V;F,15.3,0x00c000,-37.2,0.00e-0
1663957503,C;S;V;F,15.5,0x00c000,-37.3,0.00e-0
1663957504,C;S;V;F,15.1,0x00c000,-37.3,0.00e-0
1663957505,C;S;V;F,15.4,0x00c000,-37.3,0.00e-0
1663957506,C;S;V;F,15.1,0x00c000,-37.5,0.00e-0
1663957507,C;S;V;F,14.9,0x00c000,-37.6,0.00e-0
1663957508,,15.0,0x00c000,-37.6,
1663957509,C;S;V;F,15.1,0x00c000,-37.6,0.00e-0
1663957510,C;S;V;F,,,,0.00e-0
1663957512,C;S;V;F,15.1,0x00c000,-37.8,0.00e-0
1663957513,,14.8,0x00c000,-37.6,
1663957514,C;S;V;F,15.0,0x00c000,-37.7,0.00e-0
1663957515,C;S;V;F,15.0,0x00c000,-37.7,0.00e-0
1663957516,C;S;V;F,,0x00c000,-37.8,0.00e-0
1663957517,C;S;V;F,14.8,0x00c000,,0.00e-0
1663957518,C;S;V;F,14.9,0x00c000,-37.9,0.00e-0
1663957519,C;S;V;F,15.0,0x00c000,-37.6,0.00e-0
1663957520,C;S;V;F,15.0,0x00c000,-37.6,0.00e-0
1663957521,C;S;V;F,15.0,0x00c000,-37.6,0.00e-0
1663957522,C;S;V;F,15.3,0x00c000,-37.6,0.00e-0
1663957523,C;S;V;F,15.1,0x00c000,-37.6,0.00e-0
1663957524,C;S;V;F,15.3,0x00c000,-37.3,
1663957525,,15.2,0x00c000,-37.6,0.00e-0
1663957526,C;S;V;F,15.1,0x00c000,-37.5,0.00e-0
1663957527,C;S;V;F,15.3,0x00c000,-37.4,0.00e-0
1663957528,C;S;V;F,,0x00c000,-37.3,0.00e-0
1663957529,C;S;V;F,15.4,0x00c000,,0.00e-0
1663957530,C;S;V;F,15.4,0x00c000,-37.2,0.00e-0
1663957531,C;S;V;F,15.5,0x00c000,-36.8,0.00e-0
1663957532,C;S;V;F,15.6,0x00c000,-36.8,0.00e-0
1663957533,C;S;V;F,15.7,0x00c000,-36.7,0.00e-0
1663957534,C;S;V;F,15.9,0x00c000,-36.8,0.00e-0
1663957535,C;S;V;F,15.7,0x00c000,-36.8,0.00e-0
1663957536,C;S;V;F,15.7,0x00c000,-36.7,0.00e-0
1663957537,C;S;V;F,15.7,0x00c000,-37.1,
1663957538,,15.5,0x00c000,-37.1,0.00e-0
1663957539,C;S;V;F,15.3,0x00c000,-37.2,0.00e-0
1663957540,C;S;V;F,,0x00c000,-37.6,0.00e-0
1663957541,C;S;V;F,15.2,0x00c000,-37.6,0.00e-0
1663957542,C;S;V;F,15.0,0x00c000,-37.8,0.00e-0
1663957543,C;S;V;F,15.1,0x00c000,,0.00e-0
1663957544,C;S;V;F,14.9,0x00c000,-38.0,0.00e-0
1663957545,C;S;V;F,14.5,0x00c000,-38.4,0.00e-0
1663957546,C;S;V;F,14.2,0x00c000,-38.7,0.00e-0
1663957547,C;S;V;F,14.0,0x00c000,-38.7,0.00e-0
1663957548,C;S;V;F,14.0,0x00c000,-38.8,
1663957549,,14.0,0x00c000,-38.7,0.00e-0
1663957550,C;S;V;F,14.2,0x00c000,-38.6,0.00e-0
1663957551,C;S;V;F,,0x00c000,,0.00e-0
1663957552,C;S;V;F,13.9,0x00c000,-38.8,0.00e-0
1663957553,C;S;V;F,13.6,0x00c000,-39.2,0.00e-0
1663957554,C;S;V;F,13.3,0x00c000,-39.4,0.00e-0
1663957555,C;S;V;F,13.1,0x00c000,-39.5,0.00e-0
1663957556,C;S;V;F,13.2,0x00c000,-39.5,0.00e-0
1663957557,C;S;V;F,13.6,0x00c000,-39.3,0.00e-0
1663957558,,13.6,0x00c000,-39.5,
1663957559,C;S;V;F,13.5,0x00c000,-39.1,0.00e-0
1663957560,C;S;V;F,,0x00c000,-39.4,0.00e-0
1663957561,C;S;V;F,13.5,0x00c000,,0.00e-0
1663957562,C;S;V;F,13.7,0x00c000,-39.2,0.00e-0
1663957563,C;S;V;F,13.5,0x00c000,-39.1,0.00e-0
1663957564,C;S;V;F,13.3,0x00c000,-39.3,0.00e-0
1663957565,C;S;V;F,13.7,0x00c000,-39.1,0.00e-0
1663957566,C;S;V;F,13.7,0x00c000,-39.4,0.00e-0
1663957567,C;S;V;F,13.6,0x00c000,-39.4,0.00e-0
1663957568,C;S;V;F,13.5,0x00c000,-39.2,0.00e-0
1663957569,C;S;V;F,13.5,0x00c000,-39.5,0.00e-0
1663957570,,13.2,0x00c000,-39.6,
1663957571,C;S;V;F,13.0,0x00c000,-39.4,1.51e-7
1663957572,C;S;V;F,13.2,0x00c000,-39.7,3.03e-7
1663957573,C;S;V;F,,0x00c000,,1.51e-7
1663957575,C;S;V;F,13.0,0x00c000,-39.8,3.03e-7
1663957576,C;S;V;F,13.3,0x00c000,-39.6,0.00e-0
1663957577,C;S;V;F,13.7,0x00c000,-39.1,0.00e-0
1663957578,C;S;V;F,14.3,0x00c000,-38.4,0.00e-0
1663957579,C;S;V;F,14.8,0x00c000,-38.0,0.00e-0
1663957580,,15.0,0x00c000,-37.5,
1663957581,C;S;V;F,15.4,0x00c000,-37.3,0.00e-0
1663957582,C;S;V;F,15.2,0x00c000,-37.2,0.00e-0
1663957583,C;S;V;F,,0x00c000,-37.1,0.00e-0
1663957584,C;S;V;F,15.3,0x00c000,,0.00e-0
1663957585,C;S;V;F,15.5,0x00c000,-37.1,0.00e-0
1663957586,C;S;V;F,15.6,0x00c000,-37.2,0.00e-0
1663957587,C;S;V;F,15.4,0x00c000,-37.4,0.00e-0
1663957588,C;S;V;F,15.5,0x00c000,-37.1,0.00e-0
1663957589,C;S;V;F,15.7,0x00c000,-36.9,0.00e-0
1663957590,C;S;V;F,15.6,0x00c000,-36.9,
1663957591,,15.6,0x00c000,-36.9,0.00e-0
1663957592,C;S;V;F,15.6,0x00c000,-37.6,0.00e-0
1663957593,C;S;V;F,,0x00c000,,0.00e-0
1663957594,C;S;V;F,14.7,0x00c000,-38.3,0.00e-0
1663957595,C;S;V;F,14.4,0x00c000,-38.4,0.00e-0
1663957596,C;S;V;F,14.4,0x00c000,-38.7,0.00e-0
1663957597,C;S;V;F,14.6,0x00c000,-38.1,0.00e-0
1663957598,C;S;V;F,14.6,0x00c000,-38.0,0.00e-0
1663957599,C;S;V;F,14.7,0x00c000,-38.1,0.00e-0
1663957600,C;S;V;F,14.8,0x00c000,-38.1,0.00e-0
1663957601,C;S;V;F,14.9,0x00c000,-38.0,0.00e-0
1663957602,C;S;V;F,14.8,0x00c000,-38.0,0.00e-0
1663957603,C;S;V;F,14.4,0x00c000,-38.5,
1663957604,,14.6,0x00c000,-38.1,0.00e-0
1663957605,C;S;V;F,,0x00c000,-38.4,0.00e-0
1663957606,C;S;V;F,14.8,0x00c000,-39.2,0.00e-0
1663957607,C;S;V;F,13.8,0x00c000,,0.00e-0
1663957608,C;S;V;F,13.7,0x00c000,-39.4,0.00e-0
1663957609,C;S;V;F,13.6,0x00c000,-38.9,0.00e-0
1663957610,C;S;V;F,14.4,0x00c000,-37.7,0.00e-0
1663957611,C;S;V;F,15.0,0x00c000,-37.5,0.00e-0
1663957612,C;S;V;F,15.2,0x00c000,-37.5,0.00e-0
1663957613,C;S;V;F,15.3,0x00c000,-36.9,0.00e-0
1663957614,C;S;V;F,16.9,0x00c000,-35.8,
1663957615,C;S;V;F,16.8,0x00c000,-35.7,0.00e-0
1663957616,,16.7,0x00c000,-35.8,0.00e-0
1663957617,C;S;V;F,17.1,0x00c000,-34.7,0.00e-0
1663957618,C;S;V;F,,0x00c000,-34.5,0.00e-0
1663957619,C;S;V;F,17.5,0x00c000,-35.1,0.00e-0
1663957620,C;S;V;F,17.1,0x00c000,,0.00e-0
1663957621,C;S;V;F,17.3,0x00c000,-34.9,0.00e-0
1663957622,C;S;V;F,17.7,0x00c000,-34.4,0.00e-0
1663957623,C;S;V;F,18.0,0x00c000,-33.6,0.00e-0
1663957624,C;S;V;F,18.1,0x00c000,-33.3,0.00e-0
1663957625,C;S;V;F,18.4,0x00c000,-32.8,0.00e-0
1663957626,C;S;V;F,18.7,0x00c000,-32.8,0.00e-0
1663957627,C;S;V;F,18.5,0x00c000,-33.5,0.00e-0
1663957628,,18.4,0x00c000,-33.0,
1663957629,C;S;V;F,18.1,0x00c000,-33.1,0.00e-0
1663957630,C;S;V;F,18.2,0x00c000,-34.1,0.00e-0
1663957631,C;S;V;F,18.6,0x00c000,-33.2,0.00e-0
1663957632,C;S;V;F,,0x00c000,-34.0,0.00e-0
1663957633,C;S;V;F,17.9,0x00c000,-34.5,0.00e-0
1663957634,C;S;V;F,17.8,0x00c000,,0.00e-0
1663957635,C;S;V;F,18.1,0x00c000,-33.6,0.00e-0
1663957638,C;S;V;F,17.1,0x00c000,-35.4,0.00e-0
1663957639,C;S;V;F,16.9,0x00c000,-35.2,0.00e-0
1663957640,C;S;V;F,17.3,0x00c000,-35.0,0.00e-0
1663957641,C;S;V;F,16.8,0x00c000,-36.3,0.00e-0
1663957642,C;S;V;F,17.4,0x00c000,-34.8,0.00e-0
1663957643,,16.4,0x00c000,-35.8,
1663957644,C;S;V;F,16.5,0x00c000,-36.0,0.00e-0
1663957645,C;S;V;F,,0x00c000,-36.2,0.00e-0
1663957646,C;S;V;F,16.4,0x00c000,,0.00e-0
1663957647,C;S;V;F,15.9,0x00c000,-36.9,0.00e-0
1663957648,C;S;V;F,15.9,0x00c000,-37.0,0.00e-0
1663957649,C;S;V;F,15.4,0x00c000,-37.5,0.00e-0
1663957650,C;S;V;F,15.6,0x00c000,-36.8,0.00e-0
1663957651,C;S;V;F,15.9,0x00c000,-37.1,0.00e-0
1663957652,C;S;V;F,16.9,0x00c000,-35.9,
1663957653,,17.0,0x00c000,-35.6,0.00e-0
1663957654,C;S;V;F,17.0,0x00c000,-35.6,0.00e-0
1663957655,C;S;V;F,,0x00c000,-35.8,0.00e-0
1663957656,C;S;V;F,16.9,0x00c000,,0.00e-0
1663957657,C;S;V;F,16.7,0x00c000,-35.9,0.00e-0
1663957658,C;S;V;F,16.9,0x00c000,-35.8,0.00e-0
1663957659,C;S;V;F,16.8,0x00c000,-35.7,0.00e-0
1663957660,C;S;V;F,17.0,0x00c000,-35.2,0.00e-0
1663957661,C;S;V;F,17.2,0x00c000,-35.2,0.00e-0
1663957662,C;S;V;F,16.9,0x00c000,-35.1,0.00e-0
1663957663,C;S;V;F,17.2,0x00c000,-35.1,
1663957664,,17.4,0x00c000,-34.7,0.00e-0
1663957665,C;S;V;F,17.7,0x00c000,-34.6,0.00e-0
1663957666,C;S;V;F,,0x00c000,-34.0,0.00e-0
1663957667,C;S;V;F,17.9,0x00c000,-33.7,0.00e-0
1663957668,C;S;V;F,17.9,0x00c000,,0.00e-0
1663957669,C;S;V;F,18.2,0x00c000,-33.9,0.00e-0
1663957670,C;S;V;F,18.4,0x00c000,-33.6,0.00e-0
1663957671,C;S;V;F,18.0,0x00c000,-33.9,0.00e-0
1663957672,C;S;V;F,18.0,0x00c000,-33.8,0.00e-0
1663957673,C;S;V;F,18.2,0x00c000,-33.5,0.00e-0
1663957674,C;S;V;F,18.5,0x00c000,-33.2,0.00e-0
1663957675,C;S;V;F,18.4,0x00c000,-33.3,0.00e-0
1663957676,C;S;V;F,18.6,0x00c000,-33.2,0.00e-0
1663957677,C;S;V;F,18.4,0x00c000,-33.0,0.00e-0
1663957678,C;S;V;F,18.3,0x00c000,-33.2,
1663957679,,18.5,0x00c000,-32.7,0.00e-0
1663957680,C;S;V;F,18.6,0x00c000,-32.8,0.00e-0
1663957681,C;S;V;F,18.7,0x00c000,-32.6,0.00e-0
1663957682,C;S;V;F,,0x00c000,-32.7,0.00e-0
1663957683,C;S;V;F,18.6,0x00c000,-33.1,0.00e-0
1663957684,C;S;V;F,18.5,0x00c000,,0.00e-0
1663957685,C;S;V;F,18.5,0x00c000,-33.2,0.00e-0
1663957686,C;S;V;F,18.4,0x00c000,-33.2,0.00e-0
1663957687,C;S;V;F,18.4,0x00c000,-33.2,0.00e-0
1663957688,C;S;V;F,18.3,0x00c000,-33.8,0.00e-0
1663957689,C;S;V;F,18.2,0x00c000,-34.0,0.00e-0
1663957690,C;S;V;F,17.9,0x00c000,-34.2,0.00e-0
1663957691,,17.6,0x00c000,-34.2,
1663957692,C;S;V;F,18.0,0x00c000,-34.1,0.00e-0
1663957693,C;S;V;F,17.9,0x00c000,-34.3,0.00e-0
1663957694,C;S;V;F,,0x00c000,-34.3,0.00e-0
1663957695,C;S;V;F,17.9,0x00c000,,0.00e-0
1663957696,C;S;V;F,17.4,0x00c000,-35.0,0.00e-0
1663957697,C;S;V;F,17.2,0x00c000,-35.1,0.00e-0
1663957698,C;S;V;F,17.1,0x00c000,-35.3,0.00e-0
1663957701,C;S;V;F,17.1,0x00c000,-34.7,0.00e-0
1663957702,C;S;V;F,17.1,0x00c000,-35.1,0.00e-0
1663957703,C;S;V;F,17.2,0x00c000,-34.7,0.00e-0
1663957704,C;S;V;F,17.6,0x00c000,-34.3,0.00e-0
1663957705,C;S;V;F,17.5,0x00c000,-34.7,0.00e-0
1663957727,C;S;V;F,16.6,0x00c000,-36.1,0.00e-0
1663957728,,16.2,0x00c000,-36.2,
1663957729,C;S;V;F,,,,0.00e-0
1663957730,C;S;V;F,16.8,0x00c000,-35.8,0.00e-0
1663957731,C;S;V;F,16.3,0x00c000,-36.2,0.00e-0
1663957732,C;S;V;F,15.9,0x00c000,-37.2,0.00e-0
1663957733,C;S;V;F,15.2,0x00c000,-38.1,
1663957734,,14.5,0x00c000,-38.4,0.00e-0
1663957735,C;S;V;F,14.9,0x00c000,-37.9,0.00e-0
1663957736,C;S;V;F,14.7,0x00c000,-38.0,0.00e-0
1663957737,C;S;V;F,,0x00c000,-38.2,0.00e-0
1663957738,C;S;V;F,14.8,0x00c000,-38.3,0.00e-0
1663957739,C;S;V;F,14.5,0x00c000,,0.00e-0
1663957740,C;S;V;F,13.8,0x00c000,-38.9,0.00e-0
1663957741,C;S;V;F,13.1,0x00c000,-39.4,0.00e-0
1663957742,C;S;V;F,13.3,0x00c000,-39.5,0.00e-0
1663957743,C;S;V;F,13.3,0x00c000,-39.5,0.00e-0
1663957744,C;S;V;F,13.2,0x00c000,-39.5,0.00e-0
1663957745,C;S;V;F,13.6,0x00c000,-39.1,0.00e-0
1663957746,C;S;V;F,14.8,0x00c000,-38.1,0.00e-0
1663957747,C;S;V;F,14.8,0x00c000,-38.0,0.00e-0
1663957748,C;S;V;F,14.7,0x00c000,-38.0,
1663957749,,15.2,0x00c000,-38.0,0.00e-0
1663957750,C;S;V;F,15.3,0x00c000,-37.5,0.00e-0
1663957751,C;S;V;F,15.4,0x00c000,-37.2,0.00e-0
1663957752,C;S;V;F,15.4,0x00c000,-37.2,0.00e-0
1663957753,C;S;V;F,,0x00c000,-36.7,0.00e-0
1663957754,C;S;V;F,15.8,0x00c000,-37.0,0.00e-0
1663957755,C;S;V;F,15.8,0x00c000,,0.00e-0
1663957756,C;S;V;F,15.8,0x00c000,-37.3,0.00e-0
1663957757,C;S;V;F,15.4,0x00c000,-37.2,0.00e-0
1663957758,C;S;V;F,15.7,0x00c000,-36.8,0.00e-0
1663957759,C;S;V;F,16.0,0x00c000,-36.4,0.00e-0
1663957760,C;S;V;F,16.0,0x00c000,-36.4,0.00e-0
1663957761,C;S;V;F,16.2,0x00c000,-36.7,0.00e-0
1663957763,,15.6,0x00c000,-37.1,
1663957764,C;S;V;F,,0x00c000,-37.5,0.00e-0
1663957765,C;S;V;F,15.3,0x00c000,-37.6,0.00e-0
1663957766,C;S;V;F,15.1,0x00c000,,0.00e-0
1663957767,C;S;V;F,15.2,0x00c000,-37.2,0.00e-0
1663957768,C;S;V;F,15.4,0x00c000,-37.4,0.00e-0
1663957769,C;S;V;F,15.0,0x00c000,-38.3,0.00e-0
1663957770,C;S;V;F,14.1,0x00c000,-38.8,0.00e-0
1663957771,C;S;V;F,13.8,0x00c000,-39.1,
1663957772,,13.5,0x00c000,-39.6,0.00e-0
1663957773,C;S;V;F,12.7,0x00c000,-40.0,0.00e-0
1663957774,C;S;V;F,13.0,0x00c000,-39.9,1.51e-7
1663957775,C;S;V;F,,0x00c000,-39.5,1.51e-7
1663957776,C;S;V;F,13.1,0x00c000,-39.1,0.00e-0
1663957777,C;S;V;F,13.9,0x00c000,-39.1,0.00e-0
1663957778,C;S;V;F,13.9,0x00c000,,0.00e-0
1663957779,C;S;V;F,13.9,0x00c000,-39.5,0.00e-0
1663957780,C;S;V;F,13.0,0x00c000,-40.3,1.51e-7
1663957781,C;S;V;F,12.2,0x00c000,-40.8,3.32e-6
1663957782,C;S;V;F,11.8,0x00c000,-40.7,5.44e-6
1663957783,C;S;V;F,11.9,0x00c000,-40.4,4.38e-6
1663957784,C;S;V;F,12.3,0x00c000,-40.3,2.57e-6
1663957785,C;S;V;F,12.5,0x00c000,-40.2,
1663957786,,12.7,0x00c000,-40.1,1.05e-6
1663957787,C;S;V;F,12.6,0x00c000,-40.4,1.21e-6
1663957788,C;S;V;F,12.5,0x00c000,-40.4,7.57e-7
1663957789,C;S;V;F,,0x00c000,-40.4,9.09e-7
1663957790,C;S;V;F,12.4,0x00c000,-40.4,1.81e-6
1663957791,C;S;V;F,12.3,0x00c000,,1.66e-6
1663957792,C;S;V;F,12.4,0x00c000,-40.4,1.81e-6
1663957793,C;S;V;F,13.2,0x00c000,-40.0,1.66e-6
1663957794,C;S;V;F,13.6,0x00c000,-39.3,1.51e-7
1663957795,C;S;V;F,13.6,0x00c000,-38.8,0.00e-0
1663957796,C;S;V;F,14.4,0x00c000,-38.4,
1663957797,,14.1,0x00c000,-38.6,0.00e-0
1663957798,C;S;V;F,14.1,0x00c000,-38.7,0.00e-0
1663957799,C;S;V;F,13.8,0x00c000,-38.8,0.00e-0
1663957800,C;S;V;F,,0x00c000,-38.7,0.00e-0
1663957801,C;S;V;F,14.1,0x00c000,,0.00e-0
1663957802,C;S;V;F,14.1,0x00c000,-38.5,0.00e-0
1663957803,C;S;V;F,14.5,0x00c000,-38.1,0.00e-0
1663957804,C;S;V;F,14.4,0x00c000,-38.3,0.00e-0
1663957805,C;S;V;F,14.4,0x00c000,-38.0,0.00e-0
1663957806,C;S;V;F,14.6,0x00c000,-38.2,0.00e-0
1663957807,C;S;V;F,14.7,0x00c000,-38.0,0.00e-0
1663957808,C;S;V;F,14.7,0x00c000,-38.0,0.00e-0
1663957809,C;S;V;F,14.7,0x00c000,-37.9,0.00e-0
1663957810,C;S;V;F,14.7,0x00c000,-37.9,
1663957811,,15.1,0x00c000,-37.6,0.00e-0
1663957812,C;S;V;F,15.3,0x00c000,-37.6,0.00e-0
1663957813,C;S;V;F,,0x00c000,-37.5,0.00e-0
1663957814,C;S;V;F,15.1,0x00c000,,0.00e-0
1663957815,C;S;V;F,15.0,0x00c000,-37.7,0.00e-0
1663957816,C;S;V;F,14.6,0x00c000,-37.9,
1663957817,,14.6,0x00c000,-38.1,0.00e-0
1663957818,C;S;V;F,14.3,0x00c000,-38.6,0.00e-0
1663957819,C;S;V;F,14.2,0x00c000,-38.6,0.00e-0
1663957820,C;S;V;F,,0x00c000,-38.5,0.00e-0
1663957821,C;S;V;F,14.3,0x00c000,-38.3,0.00e-0
1663957822,C;S;V;F,14.3,0x00c000,,0.00e-0
1663957823,C;S;V;F,14.5,0x00c000,-38.1,0.00e-0
1663957824,C;S;V;F,15.0,0x00c000,-37.7,0.00e-0
1663957826,C;S;V;F,14.9,0x00c000,-37.7,0.00e-0
1663957827,C;S;V;F,15.2,0x00c000,-37.5,0.00e-0
1663957828,,15.2,0x00c000,-37.5,
1663957829,C;S;V;F,15.3,0x00c000,-37.6,0.00e-0
1663957830,C;S;V;F,15.1,0x00c000,-38.0,0.00e-0
1663957831,C;S;V;F,,0x00c000,-38.1,0.00e-0
1663957832,C;S;V;F,14.7,0x00c000,-38.1,0.00e-0
1663957833,C;S;V;F,14.4,0x00c000,,0.00e-0
1663957834,C;S;V;F,14.6,0x00c000,-38.3,0.00e-0
1663957835,C;S;V;F,14.1,0x00c000,-38.5,0.00e-0
1663957836,C;S;V;F,14.0,0x00c000,-38.7,0.00e-0
1663957837,C;S;V;F,14.0,0x00c000,-38.8,0.00e-0
1663957838,C;S;V;F,13.8,0x00c000,-38.9,0.00e-0
1663957839,C;S;V;F,13.6,0x00c000,-39.1,0.00e-0
1663957840,C;S;V;F,13.8,0x00c000,-38.8,
1663957841,C;S;V;F,13.7,0x00c000,-38.7,0.00e-0
1663957842,,14.3,0x00c000,-38.6,0.00e-0
1663957843,C;S;V;F,14.4,0x00c000,-38.4,0.00e-0
1663957844,C;S;V;F,,0x00c000,,0.00e-0
1663957845,C;S;V;F,14.7,0x00c000,-38.0,0.00e-0
1663957846,C;S;V;F,14.9,0x00c000,-37.6,0.00e-0
1663957847,,15.1,0x00c000,-37.8,
1663957848,C;S;V;F,,0x00c000,-37.8,0.00e-0
1663957849,C;S;V;F,14.9,0x00c000,,0.00e-0
1663957850,C;S;V;F,15.2,0x00c000,-37.7,0.00e-0
1663957851,C;S;V;F,14.9,0x00c000,-37.6,0.00e-0
1663957852,C;S;V;F,15.1,0x00c000,-37.7,0.00e-0
1663957853,C;S;V;F,14.8,0x00c000,-37.9,0.00e-0
1663957854,C;S;V;F,14.6,0x00c000,-38.0,0.00e-0
1663957855,,14.8,0x00c000,-38.0,
1663957856,C;S;V;F,,0x00c000,-38.0,0.00e-0
1663957857,C;S;V;F,14.6,0x00c000,-38.0,0.00e-0
1663957858,C;S;V;F,14.7,0x00c000,,0.00e-0
1663957859,C;S;V;F,14.7,0x00c000,-38.0,0.00e-0
1663957860,C;S;V;F,14.9,0x00c000,-38.0,0.00e-0
1663957861,C;S;V;F,14.9,0x00c000,-38.0,0.00e-0
1663957862,C;S;V;F,14.7,0x00c000,-38.0,0.00e-0
1663957863,C;S;V;F,14.9,0x00c000,-37.5,0.00e-0
1663957864,,15.1,0x00c000,-37.5,
1663957865,C;S;V;F,15.2,0x00c000,-37.5,0.00e-0
1663957866,C;S;V;F,15.2,0x00c000,-37.3,0.00e-0
1663957867,C;S;V;F,,0x00c000,-37.5,0.00e-0
1663957868,C;S;V;F,15.1,0x00c000,,0.00e-0
1663957869,C;S;V;F,15.4,0x00c000,-37.2,0.00e-0
1663957870,C;S;V;F,15.5,0x00c000,-37.0,0.00e-0
1663957871,C;S;V;F,15.5,0x00c000,-37.1,0.00e-0
1663957872,C;S;V;F,15.5,0x00c000,-37.1,0.00e-0
1663957873,C;S;V;F,15.5,0x00c000,-36.5,0.00e-0
1663957874,C;S;V;F,15.6,0x00c000,-36.9,0.00e-0
1663957875,C;S;V;F,15.8,0x00c000,-36.7,0.00e-0
1663957876,,16.0,0x00c000,-36.5,
1663957877,C;S;V;F,15.9,0x00c000,-36.3,0.00e-0
1663957878,C;S;V;F,,0x00c000,-36.4,0.00e-0